Weather History for Fort Payne, AL

Change the Weather History Date:

Monday, February 18, 2013

  Actual Average (KRMG) Record (KRMG)
Temperature  
Mean Temperature 41 °F 45 °F  
Max Temperature 59 °F 56 °F 69 °F (2009)
Min Temperature 23 °F 33 °F 23 °F (2007)
Degree Days  
Heating Degree Days 24 20  
Month to date heating degree days 392  
Since 1 July heating degree days 2434  
Moisture  
Dew Point 23 °F    
Average Humidity 49    
Maximum Humidity 93    
Minimum Humidity 25    
Precipitation  
Precipitation 0.00 in 0.17 in 0.97 in (2009)
Month to date precipitation 2.95  
Year to date precipitation 7.77  
Snow  
Snow 0.00 in - - ()
Month to date snowfall  
Since 1 July snowfall  
Snow Depth -    
Sea Level Pressure  
Sea Level Pressure 30.17 in    
Wind  
Wind Speed 3 mph (South)    
Max Wind Speed 16 mph    
Max Gust Speed 25 mph    
Visibility 10 miles    
Events Rain    
T = Trace of Precipitation, MM = Missing Value Source: NWS Daily Summary

Daily Weather History Graph

Daily Weather History Graph

Search for Another Location

Airport:

Trip Planner

Search our weather history database for the weather conditions in past years. The results will help you decide how hot, cold, wet, or windy it might be!

Date:

Astronomy

Feb. 18, 2013 Rise Set
Actual Time 6:24 AM CST 5:29 PM CST
Civil Twilight 5:59 AM CST 5:54 PM CST
Nautical Twilight 5:29 AM CST 6:24 PM CST
Astronomical Twilight 5:00 AM CST 6:53 PM CST
Moon 11:21 AM CST (2/18) 12:57 AM CST (2/18)
Length of Visible Light 11h 55m
Length of Day
11h 04m
First Quarter, 58% of the Moon is Illuminated
Feb 18
First Quarter
Feb 25
Full
Mar 4
Last Quarter
Mar 11
New
Mar 19
First Quarter

Hourly Weather History & Observations

Time (CST) Temp. Windchill Dew Point Humidity Pressure Visibility Wind Dir Wind Speed Gust Speed Precip Events Conditions
12:15 AM 26.6 °F - 19.4 °F 74% 30.25 in 10.0 mi Calm Calm - N/A   Clear
12:35 AM 26.6 °F - 19.4 °F 74% 30.25 in 10.0 mi Calm Calm - N/A   Clear
12:55 AM 26.6 °F - 19.4 °F 74% 30.25 in 10.0 mi Calm Calm - N/A   Clear
1:15 AM 26.6 °F - 21.2 °F 80% 30.25 in 10.0 mi Calm Calm - N/A   Clear
1:35 AM 26.6 °F - 19.4 °F 74% 30.24 in 10.0 mi Calm Calm - N/A   Clear
1:55 AM 26.6 °F - 19.4 °F 74% 30.24 in 10.0 mi Calm Calm - N/A   Clear
2:15 AM 24.8 °F - 19.4 °F 80% 30.24 in 10.0 mi Calm Calm - N/A   Clear
2:35 AM 26.6 °F - 21.2 °F 80% 30.24 in 10.0 mi Calm Calm - N/A   Clear
2:55 AM 26.6 °F - 21.2 °F 80% 30.25 in 10.0 mi Calm Calm - N/A   Clear
3:15 AM 26.6 °F - 19.4 °F 74% 30.24 in 10.0 mi Calm Calm - N/A   Clear
3:35 AM 24.8 °F - 19.4 °F 80% 30.24 in 10.0 mi Calm Calm - N/A   Clear
3:55 AM 24.8 °F - 19.4 °F 80% 30.25 in 10.0 mi Calm Calm - N/A   Clear
4:15 AM 24.8 °F - 19.4 °F 80% 30.25 in 10.0 mi Calm Calm - N/A   Clear
4:35 AM 24.8 °F - 19.4 °F 80% 30.26 in 10.0 mi Calm Calm - N/A   Clear
4:55 AM 24.8 °F - 19.4 °F 80% 30.26 in 10.0 mi Calm Calm - N/A   Clear
5:15 AM 23.0 °F - 21.2 °F 93% 30.27 in 10.0 mi Calm Calm - N/A   Clear
5:35 AM 24.8 °F - 21.2 °F 86% 30.26 in 10.0 mi Calm Calm - N/A   Clear
5:55 AM 24.8 °F - 19.4 °F 80% 30.27 in 10.0 mi Calm Calm - N/A   Clear
6:15 AM 24.8 °F - 19.4 °F 80% 30.27 in 10.0 mi Calm Calm - N/A   Clear
6:35 AM 24.8 °F - 19.4 °F 80% 30.27 in 10.0 mi Calm Calm - N/A   Clear
6:55 AM 24.8 °F - 19.4 °F 80% 30.27 in 10.0 mi Calm Calm - N/A   Clear
7:15 AM 26.6 °F - 21.2 °F 80% 30.28 in 10.0 mi Calm Calm - N/A   Clear
7:35 AM 28.4 °F - 23.0 °F 80% 30.29 in 10.0 mi Calm Calm - N/A   Clear
7:55 AM 30.2 °F - 23.0 °F 75% 30.30 in 7.0 mi Calm Calm - N/A   Clear
8:15 AM 32.0 °F - 26.6 °F 80% 30.30 in 10.0 mi Calm Calm - N/A   Clear
8:35 AM 35.6 °F - 24.8 °F 65% 30.30 in 10.0 mi Calm Calm - N/A   Clear
8:55 AM 41.0 °F - 23.0 °F 49% 30.30 in 10.0 mi Calm Calm - N/A   Clear
9:15 AM 42.8 °F 40.1 °F 23.0 °F 46% 30.30 in 10.0 mi SW 4.6 mph - N/A   Clear
9:35 AM 44.6 °F 40.7 °F 23.0 °F 43% 30.29 in 10.0 mi SW 6.9 mph - N/A   Clear
9:55 AM 48.2 °F - 24.8 °F 40% 30.28 in 10.0 mi SSW 11.5 mph 17.3 mph N/A   Clear
10:15 AM 50.0 °F - 24.8 °F 37% 30.28 in 10.0 mi SW 10.4 mph 19.6 mph N/A   Clear
10:35 AM 51.8 °F - 23.0 °F 33% 30.28 in 10.0 mi SSW 9.2 mph 17.3 mph N/A   Clear
10:55 AM 51.8 °F - 23.0 °F 33% 30.27 in 10.0 mi South 10.4 mph - N/A   Clear
11:15 AM 51.8 °F - 23.0 °F 33% 30.26 in 10.0 mi SSW 9.2 mph 17.3 mph N/A   Clear
11:35 AM 53.6 °F - 23.0 °F 30% 30.25 in 10.0 mi SSW 8.1 mph 17.3 mph N/A   Clear
11:55 AM 53.6 °F - 23.0 °F 30% 30.23 in 10.0 mi SSW 9.2 mph 20.7 mph N/A   Clear
12:15 PM 53.6 °F - 24.8 °F 33% 30.21 in 10.0 mi SSW 16.1 mph 21.9 mph N/A   Clear
12:35 PM 55.4 °F - 26.6 °F 33% 30.20 in 10.0 mi South 6.9 mph 18.4 mph N/A   Clear
12:55 PM 55.4 °F - 26.6 °F 33% 30.19 in 10.0 mi South 11.5 mph 18.4 mph N/A   Clear
1:15 PM 57.2 °F - 26.6 °F 31% 30.18 in 10.0 mi SW 15.0 mph 21.9 mph N/A   Clear
1:35 PM 59.0 °F - 26.6 °F 29% 30.16 in 10.0 mi SSE 5.8 mph - N/A   Clear
1:55 PM 57.2 °F - 26.6 °F 31% 30.15 in 10.0 mi South 11.5 mph 16.1 mph N/A   Clear
2:15 PM 59.0 °F - 26.6 °F 29% 30.14 in 10.0 mi South 11.5 mph 17.3 mph N/A   Clear
2:35 PM 59.0 °F - 24.8 °F 27% 30.12 in 10.0 mi South 10.4 mph 17.3 mph N/A   Clear
2:55 PM 59.0 °F - 24.8 °F 27% 30.12 in 10.0 mi SSW 9.2 mph 20.7 mph N/A   Clear
3:15 PM 59.0 °F - 23.0 °F 25% 30.12 in 10.0 mi South 10.4 mph 18.4 mph N/A   Clear
3:35 PM 59.0 °F - 24.8 °F 27% 30.11 in 10.0 mi SSE 5.8 mph 19.6 mph N/A   Clear
3:55 PM 57.2 °F - 23.0 °F 27% 30.11 in 7.0 mi South 4.6 mph 20.7 mph N/A   Clear
4:15 PM 55.4 °F - 23.0 °F 29% 30.09 in 5.0 mi South 9.2 mph 19.6 mph N/A   Haze
4:35 PM 57.2 °F - 23.0 °F 27% 30.09 in 10.0 mi South 5.8 mph 16.1 mph N/A   Scattered Clouds
4:55 PM 57.2 °F - 23.0 °F 27% 30.08 in 10.0 mi South 8.1 mph 20.7 mph N/A   Scattered Clouds
5:15 PM 55.4 °F - 23.0 °F 29% 30.07 in 10.0 mi South 9.2 mph - N/A   Clear
5:35 PM 55.4 °F - 23.0 °F 29% 30.07 in 10.0 mi South 8.1 mph 19.6 mph N/A   Clear
5:55 PM 53.6 °F - 23.0 °F 30% 30.07 in 10.0 mi South 8.1 mph 18.4 mph N/A   Clear
6:15 PM 53.6 °F - 23.0 °F 30% 30.08 in 10.0 mi SSE 4.6 mph - N/A   Scattered Clouds
6:35 PM 53.6 °F - 23.0 °F 30% 30.07 in 10.0 mi Calm Calm - N/A   Overcast
6:55 PM 53.6 °F - 23.0 °F 30% 30.07 in 10.0 mi South 9.2 mph - N/A   Overcast
7:15 PM 51.8 °F - 23.0 °F 33% 30.06 in 10.0 mi South 4.6 mph 21.9 mph N/A   Scattered Clouds
7:35 PM 51.8 °F - 23.0 °F 33% 30.06 in 10.0 mi South 8.1 mph 21.9 mph N/A   Clear
7:55 PM 51.8 °F - 23.0 °F 33% 30.05 in 10.0 mi SSW 9.2 mph - N/A   Scattered Clouds
8:15 PM 51.8 °F - 23.0 °F 33% 30.05 in 10.0 mi South 11.5 mph - N/A   Scattered Clouds
8:35 PM 51.8 °F - 23.0 °F 33% 30.05 in 10.0 mi South 11.5 mph 25.3 mph N/A   Mostly Cloudy
8:55 PM 51.8 °F - 24.8 °F 35% 30.05 in 10.0 mi South 10.4 mph 20.7 mph N/A   Overcast
9:15 PM 51.8 °F - 24.8 °F 35% 30.04 in 10.0 mi South 8.1 mph 21.9 mph N/A   Overcast
9:35 PM 51.8 °F - 24.8 °F 35% 30.04 in 10.0 mi SSW 13.8 mph 21.9 mph N/A   Overcast
9:55 PM 51.8 °F - 24.8 °F 35% 30.04 in 10.0 mi South 10.4 mph 17.3 mph N/A   Mostly Cloudy
10:15 PM 51.8 °F - 24.8 °F 35% 30.02 in 10.0 mi South 5.8 mph 17.3 mph N/A   Mostly Cloudy
10:35 PM 50.0 °F - 24.8 °F 37% 30.01 in 10.0 mi SSW 5.8 mph 17.3 mph N/A   Mostly Cloudy
10:55 PM 50.0 °F - 24.8 °F 37% 30.00 in 10.0 mi South 10.4 mph 17.3 mph N/A   Overcast
11:15 PM 50.0 °F - 23.0 °F 35% 29.98 in 10.0 mi South 5.8 mph - N/A   Overcast
11:35 PM 50.0 °F - 21.2 °F 32% 29.97 in 10.0 mi South 12.7 mph 18.4 mph N/A   Overcast
11:55 PM 50.0 °F - 21.2 °F 32% 29.97 in 10.0 mi SSW 8.1 mph 16.1 mph N/A Rain Rain